Location: Paderno d�Adda
(45.6667°N, 9.4333°E)
Time: 05:58:44
(UTC+00:00)

CENTAUR R/B - Pass Details

Date: 20 January 2021
Orbit: 742 x 1446 km, 63.5° (Epoch: 02 March)

Event Time Altitude Azimuth Distance (km) Brightness Sun altitude
Rises 05:25:38 0° 175° (S) 3,334 5.5 -15.5°
Reaches altitude 10° 05:28:20 10° 162° (SSE) 2,486 5.1 -15.1°
Maximum altitude 05:32:55 25° 109° (ESE) 1,802 4.9 -14.3°
Drops below altitude 10° 05:38:06 10° 57° (ENE) 2,856 5.6 -13.4°
Sets 05:41:26 0° 45° (NE) 3,945 6.1 -12.8°
